Birmingham, AL

5:40 PM CDT on April 23, 2017 (GMT -0500)
Birmingham International

Weather History for KBHM - January, 2011

Change the Weather History Date:

Saturday, January 29, 2011

  Actual Average Record
Temperature  
Mean Temperature 53 °F 44 °F  
Max Temperature 73 °F 55 °F 78 °F (2002)
Min Temperature 33 °F 34 °F 2 °F (1966)
Degree Days  
Heating Degree Days 12 21  
Month to date heating degree days 743 618  
Since 1 July heating degree days 1853 1665  
Growing Degree Days 2 (Base 50)    
Moisture  
Dew Point 34 °F    
Average Humidity 57    
Maximum Humidity 89    
Minimum Humidity 25    
Precipitation  
Precipitation 0.00 in 0.17 in 1.58 in (1932)
Month to date precipitation 3.33 4.51  
Year to date precipitation 3.33 4.51  
Snow  
Snow 0.00 in 0.10 in - ()
Month to date snowfall 2.0 0.6  
Since 1 July snowfall 2.0 0.7  
Snow Depth 0.00 in    
Sea Level Pressure  
Sea Level Pressure 30.06 in    
Wind  
Wind Speed 4 mph (SW)    
Max Wind Speed 18 mph    
Max Gust Speed 22 mph    
Visibility 10 miles    
Events      
T = Trace of Precipitation, MM = Missing Value Source: NWS Daily Summary

Daily Weather History Graph

Daily Weather History Graph

Search for Another Location

Airport or City:

Trip Planner

Search our weather history database for the weather conditions in past years. The results will help you decide how hot, cold, wet, or windy it might be!

Date:

Astronomy

Jan. 29, 2011 Rise Set
Actual Time 6:45 AM CST 5:15 PM CST
Civil Twilight 6:19 AM CST 5:41 PM CST
Nautical Twilight 5:49 AM CST 6:11 PM CST
Astronomical Twilight 5:19 AM CST 6:40 PM CST
Moon 3:15 AM CST (1/29) 1:18 PM CST (1/29)
Length of Visible Light 11h 22m
Length of Day
10h 29m
Waning Crescent, 18% of the Moon is Illuminated
Jan 29
Waning Crescent
Feb 2
New
Feb 11
First Quarter
Feb 18
Full
Feb 24
Last Quarter

Hourly Weather History & Observations

Time (CST) Temp. Dew Point Humidity Pressure Visibility Wind Dir Wind Speed Gust Speed Precip Events Conditions
12:53 AM 36.0 °F 30.0 °F 79% 30.05 in 10.0 mi Calm Calm - N/A   Clear
1:53 AM 35.1 °F 30.0 °F 82% 30.06 in 10.0 mi Calm Calm - N/A   Clear
2:53 AM 34.0 °F 30.0 °F 85% 30.05 in 10.0 mi Calm Calm - N/A   Clear
3:53 AM 34.0 °F 30.0 °F 85% 30.05 in 10.0 mi Calm Calm - N/A   Clear
4:53 AM 33.1 °F 30.0 °F 89% 30.06 in 10.0 mi Calm Calm - N/A   Clear
5:53 AM 33.1 °F 30.0 °F 89% 30.07 in 10.0 mi Calm Calm - N/A   Clear
6:53 AM 33.1 °F 30.0 °F 89% 30.08 in 10.0 mi Calm Calm - N/A   Clear
7:53 AM 41.0 °F 35.1 °F 79% 30.09 in 10.0 mi Calm Calm - N/A   Clear
8:53 AM 55.0 °F 37.0 °F 51% 30.08 in 10.0 mi SW 9.2 mph - N/A   Clear
9:53 AM 59.0 °F 35.1 °F 41% 30.09 in 10.0 mi WSW 11.5 mph - N/A   Clear
10:53 AM 63.0 °F 36.0 °F 37% 30.09 in 10.0 mi SW 8.1 mph - N/A   Clear
11:53 AM 66.9 °F 36.0 °F 32% 30.05 in 10.0 mi SW 9.2 mph - N/A   Clear
12:53 PM 72.0 °F 34.0 °F 25% 30.03 in 10.0 mi WSW 17.3 mph - N/A   Clear
1:53 PM 72.0 °F 33.1 °F 24% 30.02 in 10.0 mi SW 13.8 mph 21.9 mph N/A   Clear
2:53 PM 72.0 °F 34.0 °F 25% 30.02 in 10.0 mi West 13.8 mph - N/A   Clear
3:53 PM 71.1 °F 35.1 °F 27% 30.02 in 10.0 mi SW 9.2 mph - N/A   Clear
4:53 PM 69.1 °F 33.1 °F 26% 30.03 in 10.0 mi SW 10.4 mph - N/A   Clear
5:53 PM 63.0 °F 34.0 °F 34% 30.04 in 10.0 mi Calm Calm - N/A   Clear
6:53 PM 55.0 °F 36.0 °F 49% 30.05 in 10.0 mi Calm Calm - N/A   Clear
7:53 PM 55.0 °F 36.0 °F 49% 30.06 in 10.0 mi Calm Calm - N/A   Clear
8:53 PM 57.0 °F 35.1 °F 44% 30.06 in 10.0 mi Calm Calm - N/A   Clear
9:53 PM 55.9 °F 35.1 °F 45% 30.06 in 10.0 mi Calm Calm - N/A   Clear
10:53 PM 52.0 °F 36.0 °F 54% 30.07 in 10.0 mi Calm Calm - N/A   Clear
11:53 PM 55.0 °F 35.1 °F 47% 30.06 in 10.0 mi Calm Calm - N/A   Clear